• In Czech Republic
  • List of Countries
  • For 7 days
  • Water Temperature
  • Satellite Maps
  • Weather Map
  • Weather Widgets
  • user-avatar
    Login

    Hourly Weather Shaki

    Today, 16 August, Thursday

    Time Temperature Precipitation Wind Pressure Humidity
    00:00 +24°C° 0 mm 2 mps 736 mmHg 60%
    01:00 +23°C° 0 mm 2 mps 736 mmHg 61%
    02:00 +23°C° 0 mm 2 mps 736 mmHg 63%
    03:00 +22°C° 0 mm 3 mps 736 mmHg 67%
    04:00 +23°C° 0 mm 2 mps 736 mmHg 66%
    05:00 +23°C° 0 mm 2 mps 736 mmHg 66%
    06:00 +23°C° 0 mm 2 mps 736 mmHg 65%
    07:00 +25°C° 0 mm 2 mps 736 mmHg 58%
    08:00 +27°C° 0 mm 2 mps 736 mmHg 51%
    09:00 +29°C° 0 mm 2 mps 736 mmHg 44%
    10:00 +30°C° 0 mm 2 mps 735 mmHg 41%
    11:00 +31°C° 0 mm 2 mps 735 mmHg 38%
    12:00 +32°C° 0 mm 2 mps 735 mmHg 35%
    13:00 +34°C° 0 mm 2 mps 735 mmHg 34%
    14:00 +34°C° 0 mm 2 mps 734 mmHg 33%
    15:00 +35°C° 0 mm 3 mps 734 mmHg 32%
    16:00 +34°C° 0 mm 2 mps 734 mmHg 34%
    17:00 +32°C° 0 mm 2 mps 734 mmHg 36%
    18:00 +32°C° 0 mm 2 mps 734 mmHg 38%
    19:00 +30°C° 0 mm 2 mps 734 mmHg 40%
    20:00 +29°C° 0 mm 2 mps 734 mmHg 42%
    21:00 +27°C° 0 mm 2 mps 734 mmHg 44%
    22:00 +27°C° 0 mm 2 mps 734 mmHg 45%
    23:00 +26°C° 0 mm 2 mps 734 mmHg 45%

    Tomorrow, 17 August, Friday

    Time Temperature Precipitation Wind Pressure Humidity
    00:00 +26°C° 0 mm 2 mps 734 mmHg 45%
    01:00 +25°C° 0 mm 2 mps 734 mmHg 45%
    02:00 +25°C° 0 mm 2 mps 734 mmHg 46%
    03:00 +25°C° 0 mm 1 mps 733 mmHg 46%
    04:00 +25°C° 0 mm 1 mps 733 mmHg 45%
    05:00 +25°C° 0 mm 1 mps 733 mmHg 45%
    06:00 +26°C° 0 mm 1 mps 733 mmHg 45%
    07:00 +28°C° 0 mm 1 mps 733 mmHg 41%
    08:00 +30°C° 0 mm 2 mps 733 mmHg 37%
    09:00 +31°C° 0 mm 2 mps 733 mmHg 34%
    10:00 +34°C° 0 mm 2 mps 732 mmHg 32%
    11:00 +35°C° 0 mm 2 mps 732 mmHg 30%
    12:00 +36°C° 0 mm 2 mps 732 mmHg 29%
    13:00 +36°C° 0 mm 2 mps 731 mmHg 28%
    14:00 +37°C° 0 mm 2 mps 731 mmHg 27%
    15:00 +37°C° 0 mm 2 mps 731 mmHg 26%
    16:00 +36°C° 0 mm 2 mps 731 mmHg 29%
    17:00 +35°C° 0 mm 2 mps 730 mmHg 31%
    18:00 +34°C° 0 mm 1 mps 730 mmHg 33%
    19:00 +32°C° 0 mm 2 mps 731 mmHg 36%
    20:00 +31°C° 0 mm 2 mps 731 mmHg 39%
    21:00 +29°C° 0 mm 2 mps 731 mmHg 41%
    22:00 +28°C° 0 mm 2 mps 731 mmHg 43%
    23:00 +28°C° 0 mm 2 mps 731 mmHg 45%

    Day after tomorrow, 18 August, Saturday

    Time Temperature Precipitation Wind Pressure Humidity
    00:00 +27°C° 0 mm 2 mps 731 mmHg 47%
    01:00 +27°C° 0 mm 2 mps 731 mmHg 47%
    02:00 +26°C° 0 mm 2 mps 731 mmHg 46%
    03:00 +26°C° 0 mm 1 mps 730 mmHg 46%
    04:00 +26°C° 0 mm 1 mps 730 mmHg 45%
    05:00 +26°C° 0 mm 1 mps 730 mmHg 45%
    06:00 +27°C° 0 mm 1 mps 730 mmHg 44%
    07:00 +28°C° 0 mm 1 mps 730 mmHg 40%
    08:00 +30°C° 0 mm 2 mps 730 mmHg 36%
    09:00 +32°C° 0 mm 2 mps 730 mmHg 32%
    10:00 +34°C° 0 mm 2 mps 730 mmHg 30%
    11:00 +35°C° 0 mm 2 mps 730 mmHg 29%
    12:00 +36°C° 0 mm 2 mps 730 mmHg 27%
    13:00 +36°C° 0.1 mm 2 mps 729 mmHg 27%
    14:00 +37°C° 0.1 mm 2 mps 729 mmHg 26%
    15:00 +37°C° 0.1 mm 2 mps 729 mmHg 26%
    16:00 +36°C° 0.1 mm 2 mps 729 mmHg 28%
    17:00 +36°C° 0.1 mm 2 mps 729 mmHg 30%
    18:00 +35°C° 0.1 mm 2 mps 729 mmHg 33%
    19:00 +33°C° 0 mm 3 mps 730 mmHg 37%
    20:00 +31°C° 0 mm 3 mps 730 mmHg 41%
    21:00 +29°C° 0 mm 3 mps 730 mmHg 45%
    22:00 +28°C° 0 mm 3 mps 730 mmHg 48%
    23:00 +28°C° 0 mm 3 mps 730 mmHg 51%

    19 August, Sunday

    Time Temperature Precipitation Wind Pressure Humidity
    00:00 +27°C° 0 mm 3 mps 731 mmHg 54%
    01:00 +27°C° 0.1 mm 3 mps 731 mmHg 54%
    02:00 +27°C° 0.1 mm 2 mps 731 mmHg 55%
    03:00 +26°C° 0.1 mm 2 mps 731 mmHg 56%
    04:00 +26°C° 0.3 mm 2 mps 731 mmHg 57%
    05:00 +26°C° 0.3 mm 2 mps 731 mmHg 57%
    06:00 +26°C° 0.3 mm 1 mps 731 mmHg 58%
    07:00 +28°C° 0.3 mm 2 mps 731 mmHg 54%
    08:00 +29°C° 0.3 mm 2 mps 731 mmHg 49%
    09:00 +30°C° 0.3 mm 2 mps 731 mmHg 45%
    10:00 +31°C° 0.1 mm 2 mps 731 mmHg 42%
    11:00 +32°C° 0.1 mm 2 mps 731 mmHg 40%
    12:00 +34°C° 0.1 mm 2 mps 731 mmHg 38%
    13:00 +34°C° 0.1 mm 2 mps 731 mmHg 37%
    14:00 +35°C° 0.1 mm 2 mps 731 mmHg 35%
    15:00 +35°C° 0.1 mm 2 mps 731 mmHg 33%
    16:00 +34°C° 0.2 mm 2 mps 731 mmHg 36%
    17:00 +33°C° 0.2 mm 3 mps 731 mmHg 39%
    18:00 +31°C° 0.2 mm 3 mps 731 mmHg 42%
    19:00 +30°C° 0.1 mm 3 mps 732 mmHg 44%
    20:00 +29°C° 0.1 mm 3 mps 732 mmHg 47%
    21:00 +28°C° 0.1 mm 3 mps 733 mmHg 49%
    22:00 +27°C° 0.1 mm 3 mps 733 mmHg 51%
    23:00 +27°C° 0.1 mm 2 mps 733 mmHg 53%

    20 August, Monday

    Time Temperature Precipitation Wind Pressure Humidity
    00:00 +26°C° 0.1 mm 2 mps 733 mmHg 55%
    01:00 +25°C° 0.1 mm 2 mps 733 mmHg 57%
    02:00 +25°C° 0.1 mm 2 mps 733 mmHg 59%
    03:00 +24°C° 0.1 mm 2 mps 733 mmHg 61%
    04:00 +24°C° 0 mm 2 mps 733 mmHg 61%
    05:00 +25°C° 0 mm 2 mps 733 mmHg 60%
    06:00 +25°C° 0 mm 2 mps 733 mmHg 60%
    07:00 +26°C° 0 mm 2 mps 734 mmHg 54%
    08:00 +28°C° 0 mm 3 mps 734 mmHg 48%
    09:00 +29°C° 0 mm 3 mps 734 mmHg 42%
    10:00 +30°C° 0 mm 3 mps 734 mmHg 39%
    11:00 +32°C° 0 mm 4 mps 734 mmHg 37%
    12:00 +33°C° 0 mm 4 mps 734 mmHg 34%
    13:00 +33°C° 0 mm 4 mps 733 mmHg 33%
    14:00 +34°C° 0 mm 4 mps 733 mmHg 32%
    15:00 +34°C° 0 mm 4 mps 733 mmHg 31%
    16:00 +33°C° 0 mm 4 mps 733 mmHg 33%
    17:00 +32°C° 0 mm 4 mps 734 mmHg 35%
    18:00 +32°C° 0 mm 4 mps 734 mmHg 37%
    19:00 +29°C° 0 mm 4 mps 734 mmHg 40%
    20:00 +27°C° 0 mm 4 mps 735 mmHg 43%
    21:00 +26°C° 0 mm 4 mps 735 mmHg 46%
    22:00 +25°C° 0 mm 3 mps 735 mmHg 47%
    23:00 +24°C° 0 mm 3 mps 735 mmHg 48%

    21 August, Tuesday

    Time Temperature Precipitation Wind Pressure Humidity
    00:00 +24°C° 0 mm 3 mps 735 mmHg 49%
    01:00 +23°C° 0 mm 2 mps 735 mmHg 50%
    02:00 +23°C° 0 mm 2 mps 735 mmHg 50%
    03:00 +23°C° 0 mm 2 mps 735 mmHg 51%
    04:00 +23°C° 0 mm 1 mps 735 mmHg 50%
    05:00 +23°C° 0 mm 1 mps 736 mmHg 48%
    06:00 +23°C° 0 mm 1 mps 736 mmHg 47%
    07:00 +25°C° 0 mm 1 mps 736 mmHg 42%
    08:00 +27°C° 0 mm 1 mps 736 mmHg 38%
    09:00 +29°C° 0 mm 1 mps 736 mmHg 33%
    10:00 +30°C° 0 mm 2 mps 736 mmHg 31%
    11:00 +31°C° 0 mm 2 mps 736 mmHg 29%
    12:00 +32°C° 0 mm 2 mps 736 mmHg 28%
    13:00 +33°C° 0 mm 3 mps 736 mmHg 27%
    14:00 +34°C° 0 mm 3 mps 735 mmHg 26%
    15:00 +34°C° 0 mm 3 mps 735 mmHg 26%
    16:00 +33°C° 0 mm 3 mps 735 mmHg 28%
    17:00 +33°C° 0 mm 3 mps 736 mmHg 30%
    18:00 +31°C° 0 mm 2 mps 736 mmHg 32%
    19:00 +29°C° 0 mm 3 mps 736 mmHg 34%
    20:00 +28°C° 0 mm 3 mps 737 mmHg 37%
    21:00 +26°C° 0 mm 3 mps 737 mmHg 39%
    22:00 +25°C° 0 mm 3 mps 737 mmHg 40%
    23:00 +25°C° 0 mm 3 mps 737 mmHg 41%
    Show more